[Date Prev][Date Next][Thread Prev][Thread Next] - [Date Index][Thread Index][Author Index]
2 Line ISS Keps 7-12
- Subject: [sarex] 2 Line ISS Keps 7-12
- From: "Dave Larsen PhD" <doc@xxxxxxxxxxx>
- Date: Mon, 11 Jul 2005 19:28:30 -0700
ISS
1 25544U 98067A 05192.96481946 .00019749 00000-0 15490-3 0 8894
2 25544 051.6447 133.9583 0003833 118.2650 327.8962 15.71553773379584
----
Via the sarex mailing list at AMSAT.ORG courtesy of AMSAT-NA.
To unsubscribe, send "unsubscribe sarex" to Majordomo@amsat.org
AMSAT Home